Miscellaneous Local Product
Issued by NWS Hastings, NE

Home | Current Version | Previous Version | Graphics & Text | Print | Product List | Glossary On
Versions: 1 2 3 4 5 6 7 8 9 10 11 12 13 14 15 16 17 18 19 20 21 22 23 24 25 26 27 28 29 30 31 32 33 34 35 36 37 38 39 40 41 42 43 44 45 46 47 48 49 50
000
AXUS43 KGID 291102
MISGRI

GID CWA HOURLY WEATHER ROUNDUP
NATIONAL WEATHER SERVICE HASTINGS NE
600 AM CDT WED JUL 29 2015

NOTE: "FAIR" INDICATES FEW OR NO CLOUDS BELOW 12,000 FEET WITH NO
SIGNIFICANT WEATHER AND/OR OBSTRUCTIONS TO VISIBILITY.

...SOUTH CENTRAL NEBRASKA...

CITY           SKY/WX    TMP DP  RH WIND       PRES   REMARKS
GRAND ISLAND   CLEAR     56  52  86 NW3       30.18R
HASTINGS       CLEAR     59  56  89 CALM      30.18R
KEARNEY        CLEAR     57  52  82 NW5       30.20R
ORD            PTCLDY    53  50  89 CALM      30.19R
YORK           CLEAR     57  57 100 N5        30.16R
AURORA         CLEAR     57  56  97 N3        30.17S
LEXINGTON      PTCLDY    55  51  89 W5        30.22R
HOLDREGE       PTCLDY    55  53  91 NW3       30.19R
HEBRON         MOCLDY    60  58  91 CALM      30.13R

...NEBRASKA PANHANDLE...

CITY           SKY/WX    TMP DP  RH WIND       PRES   REMARKS
CHADRON        CLEAR     44  40  85 SW6       30.26S
ALLIANCE       CLEAR     42  39  89 SW6       30.29R
SCOTTSBLUFF    CLEAR     51  45  79 MISG      30.29S
SIDNEY         CLEAR     51  42  71 NE7       30.30R

...WESTERN AND NORTH CENTRAL NEBRASKA...

CITY           SKY/WX    TMP DP  RH WIND       PRES   REMARKS
VALENTINE      CLEAR     47  43  86 SW7       30.21S
AINSWORTH      CLEAR     55  47  74 W6        30.20F
ONEILL         CLEAR     54  51  88 W5        30.17S
BROKEN BOW     PTCLDY    53  50  89 CALM      30.21S
IMPERIAL       CLEAR     54  48  80 CALM      30.26R
NORTH PLATTE   CLEAR     55  48  77 SE6       30.24R
MCCOOK         MOCLDY    55  50  83 W5        30.23R

...EASTERN NEBRASKA...

CITY           SKY/WX    TMP DP  RH WIND       PRES   REMARKS
NORFOLK        CLEAR     54  52  93 CALM      30.15R
SO SIOUX CITY  CLEAR     58  55  90 CALM      30.12R
TEKAMAH        CLEAR     59  57  93 CALM      30.12R
COLUMBUS       CLEAR     52  45  76 CALM      30.16S
ALBION         CLEAR     52  49  90 CALM      30.18R
OMAHA EPPLEY   PTCLDY    64  62  93 N6        30.12R
OFFUTT AFB     CLEAR     63  60  91 W6        30.10R
MILLARD        CLEAR     64  61  91 NW5       30.11R
LINCOLN        CLEAR     59  58  96 N6        30.14R
NEBRASKA CITY  MOCLDY    64  59  85 N3        30.10S
BEATRICE       PTCLDY    61  60  96 N5        30.12R
FALLS CITY     CLOUDY    73  68  84 NE9       30.08R

...NORTHERN KANSAS...

CITY           SKY/WX    TMP DP  RH WIND       PRES   REMARKS
GOODLAND       MOCLDY    59  51  75 S7        30.27R
HILL CITY      MOCLDY    62  58  86 N7        30.18S
NORTON         SUNNY     57  52  82 N5        30.19S
PHILLIPSBURG   CLEAR     66  61  82 NW6       30.17R
HAYS           CLOUDY    66  55  68 N7        30.13S
RUSSELL        MOCLDY    65  60  84 NE6       30.11R
CONCORDIA      CLOUDY    65  62  90 CALM      30.13R
SALINA         CLOUDY    68  65  90 E10       30.08F
TOPEKA         TSTM      71  70  96 NE7       30.08R FOG



USA.gov is the U.S. government's official web portal to all federal, state and local government web resources and services.